Voltar ao catálogo

CZ-2C DEB

AtivoPO
NORAD 37732·DEBRIS·🇨🇳 China

Lançado Jul 6, 2011 de Jiuquan Satellite Launch Center

Loading…

Próximas Passagens (próximas 24 horas)

TLE

AtualizadoSource: Space-Track

Época: Sep 14, 2026, 13:14 UTC

1 37732U 11030C   26257.55164353  .00001039  00000-0  31822-3 0  9993
2 37732  97.9446 293.8103 0136765 227.8095 298.2041 14.38427509791242

Acompanhe CZ-2C DEB em tempo real com AllMySat

Download on the App Store